Weather History for Wolf Creek Pass, CO

Change the Weather History Date:

Wednesday, May 2, 2012

  Actual Average (KALS) Record (KALS)
Temperature  
Mean Temperature 36 °F 47 °F  
Max Temperature 44 °F 65 °F 81 °F (1943)
Min Temperature 28 °F 30 °F 13 °F (2008)
Degree Days  
Heating Degree Days 29 18  
Month to date heating degree days 36  
Since 1 July heating degree days 8036  
Cooling Degree Days 0 0  
Month to date cooling degree days 0  
Year to date cooling degree days 0  
Moisture  
Dew Point 20 °F    
Average Humidity 54    
Maximum Humidity 64    
Minimum Humidity 42    
Precipitation  
Precipitation 0.00 in 0.02 in 0.44 in (1978)
Month to date precipitation 0.04  
Year to date precipitation 1.68  
Snow  
Snow 0.00 in 0.00 in 4.40 in (1978)
Month to date snowfall 0.1  
Since 1 July snowfall 26.8  
Snow Depth -    
Sea Level Pressure  
Sea Level Pressure 30.21 in    
Wind  
Wind Speed 20 mph (SW)    
Max Wind Speed 31 mph    
Max Gust Speed 43 mph    
Visibility 10 miles    
Events      
T = Trace of Precipitation, MM = Missing Value Source: NWS Daily Summary

Daily Weather History Graph

Daily Weather History Graph

Search for Another Location

Airport:

Trip Planner

Search our weather history database for the weather conditions in past years. The results will help you decide how hot, cold, wet, or windy it might be!

Date:

Astronomy

May. 02, 2012 Rise Set
Actual Time 6:10 AM MDT 7:58 PM MDT
Civil Twilight 5:42 AM MDT 8:26 PM MDT
Nautical Twilight 5:08 AM MDT 9:01 PM MDT
Astronomical Twilight 4:31 AM MDT 9:37 PM MDT
Moon 4:18 PM MDT 3:37 AM MDT
Length of Visible Light 14h 44m
Length of Day
13h 48m
Waxing Gibbous, 84% of the Moon is Illuminated
May 2
Waxing Gibbous
May 5
Full
May 12
Last Quarter
May 20
New
May 28
First Quarter

Hourly Weather History & Observations

Time (MDT) Temp. Windchill Dew Point Humidity Pressure Visibility Wind Dir Wind Speed Gust Speed Precip Events Conditions
12:15 AM 33.8 °F 20.8 °F 19.4 °F 56% 30.17 in 10.0 mi SW 26.5 mph 33.4 mph N/A   Clear
12:35 AM 33.8 °F 21.9 °F 19.4 °F 56% 30.17 in 10.0 mi SW 21.9 mph - N/A   Clear
12:55 AM 33.8 °F 21.9 °F 19.4 °F 56% 30.17 in 10.0 mi SW 21.9 mph 28.8 mph N/A   Clear
1:15 AM 33.8 °F 21.9 °F 19.4 °F 56% 30.17 in 10.0 mi SW 21.9 mph 32.2 mph N/A   Clear
1:35 AM 32.0 °F 19.8 °F 19.4 °F 60% 30.16 in 10.0 mi SW 20.7 mph 31.1 mph N/A   Clear
2:15 AM 32.0 °F 19.2 °F 17.6 °F 55% 30.15 in 10.0 mi SW 23.0 mph 29.9 mph N/A   Clear
2:35 AM 32.0 °F 18.9 °F 17.6 °F 55% 30.15 in 10.0 mi SW 24.2 mph 31.1 mph N/A   Clear
2:55 AM 32.0 °F 19.5 °F 17.6 °F 55% 30.15 in 10.0 mi SW 21.9 mph 29.9 mph N/A   Clear
3:15 AM 32.0 °F 20.8 °F 17.6 °F 55% 30.15 in 10.0 mi SW 17.3 mph 31.1 mph N/A   Clear
3:34 AM 30.2 °F 17.4 °F 17.6 °F 60% 30.15 in 10.0 mi SW 20.7 mph 32.2 mph N/A   Clear
4:14 AM 30.2 °F 17.8 °F 17.6 °F 60% 30.15 in 10.0 mi SW 19.6 mph 29.9 mph N/A   Clear
4:35 AM 30.2 °F 17.8 °F 17.6 °F 60% 30.15 in 10.0 mi SW 19.6 mph 29.9 mph N/A   Clear
4:55 AM 30.2 °F 17.4 °F 17.6 °F 60% 30.15 in 10.0 mi SW 20.7 mph 28.8 mph N/A   Clear
5:35 AM 28.4 °F 15.8 °F 17.6 °F 64% 30.15 in 10.0 mi SW 18.4 mph 28.8 mph N/A   Clear
5:55 AM 28.4 °F 15.1 °F 17.6 °F 64% 30.15 in 10.0 mi SW 20.7 mph 31.1 mph N/A   Clear
6:14 AM 28.4 °F 15.1 °F 17.6 °F 64% 30.16 in 10.0 mi SW 20.7 mph 28.8 mph N/A   Clear
6:34 AM 28.4 °F 15.1 °F 17.6 °F 64% 30.16 in 10.0 mi SW 20.7 mph 32.2 mph N/A   Clear
6:55 AM 28.4 °F 14.4 °F 17.6 °F 64% 30.17 in 10.0 mi SW 23.0 mph 26.5 mph N/A   Clear
7:15 AM 28.4 °F 16.2 °F 17.6 °F 64% 30.17 in 10.0 mi SW 17.3 mph 26.5 mph N/A   Clear
7:35 AM 28.4 °F 15.8 °F 17.6 °F 64% 30.18 in 10.0 mi SW 18.4 mph 26.5 mph N/A   Clear
7:55 AM 28.4 °F 16.2 °F 17.6 °F 64% 30.19 in 10.0 mi SW 17.3 mph 23.0 mph N/A   Clear
8:15 AM 30.2 °F 18.5 °F 19.4 °F 64% 30.20 in 10.0 mi SW 17.3 mph 25.3 mph N/A   Clear
8:35 AM 30.2 °F 18.9 °F 19.4 °F 64% 30.20 in 10.0 mi SW 16.1 mph 26.5 mph N/A   Clear
8:54 AM 30.2 °F 18.5 °F 19.4 °F 64% 30.21 in 10.0 mi SW 17.3 mph 25.3 mph N/A   Clear
9:15 AM 32.0 °F 23.0 °F 19.4 °F 60% 30.21 in 10.0 mi SSW 11.5 mph 23.0 mph N/A   Clear
9:35 AM 33.8 °F 23.9 °F 21.2 °F 60% 30.22 in 10.0 mi SSW 15.0 mph 23.0 mph N/A   Clear
9:55 AM 33.8 °F 27.0 °F 21.2 °F 60% 30.23 in 10.0 mi South 8.1 mph 19.6 mph N/A   Clear
10:15 AM 35.6 °F 26.6 °F 23.0 °F 60% 30.23 in 10.0 mi SSW 13.8 mph 21.9 mph N/A   Clear
10:35 AM 37.4 °F 28.2 °F 23.0 °F 56% 30.23 in 10.0 mi SSW 16.1 mph 29.9 mph N/A   Clear
10:55 AM 37.4 °F 28.5 °F 21.2 °F 52% 30.23 in 10.0 mi SSW 15.0 mph 26.5 mph N/A   Clear
11:15 AM 37.4 °F 27.5 °F 21.2 °F 52% 30.23 in 10.0 mi SSW 18.4 mph 28.8 mph N/A   Clear
11:34 AM 37.4 °F - 21.2 °F 52% 30.23 in 10.0 mi North - - N/A   Clear
11:55 AM 39.2 °F 31.6 °F 23.0 °F 52% 30.23 in 10.0 mi SSW 12.7 mph 28.8 mph N/A   Scattered Clouds
12:15 PM 39.2 °F 31.6 °F 21.2 °F 49% 30.24 in 10.0 mi South 12.7 mph 32.2 mph N/A   Clear
12:35 PM 39.2 °F - 21.2 °F 49% 30.24 in 10.0 mi North - - N/A   Clear
12:55 PM 39.2 °F - 21.2 °F 49% 30.24 in 10.0 mi North - - N/A   Scattered Clouds
1:15 PM 41.0 °F 34.3 °F 21.2 °F 45% 30.23 in 10.0 mi SSW 11.5 mph 27.6 mph N/A   Scattered Clouds
1:34 PM 41.0 °F - 23.0 °F 49% 30.23 in 10.0 mi North - - N/A   Scattered Clouds
1:55 PM 41.0 °F 33.9 °F 23.0 °F 49% 30.23 in 10.0 mi SW 12.7 mph - N/A   Scattered Clouds
2:15 PM 41.0 °F 32.8 °F 23.0 °F 49% 30.23 in 10.0 mi SW 16.1 mph 29.9 mph N/A   Scattered Clouds
2:34 PM 41.0 °F 34.3 °F 23.0 °F 49% 30.23 in 10.0 mi South 11.5 mph - N/A   Scattered Clouds
2:54 PM 42.8 °F 37.0 °F 21.2 °F 42% 30.23 in 10.0 mi SSW 10.4 mph - N/A   Clear
3:13 PM 41.0 °F - 21.2 °F 45% 30.23 in 10.0 mi North - - N/A   Scattered Clouds
3:54 PM 44.6 °F - 23.0 °F 43% 30.22 in 10.0 mi North - - N/A   Mostly Cloudy
4:14 PM 42.8 °F 35.8 °F 23.0 °F 46% 30.22 in 10.0 mi SSW 13.8 mph - N/A   Mostly Cloudy
4:34 PM 41.0 °F - 23.0 °F 49% 30.22 in 10.0 mi North - - N/A   Overcast
4:54 PM 41.0 °F 30.7 °F 21.2 °F 45% 30.22 in 10.0 mi SW 25.3 mph - N/A   Mostly Cloudy
5:14 PM 41.0 °F - 21.2 °F 45% 30.23 in 10.0 mi North - - N/A   Overcast
5:54 PM 41.0 °F - 19.4 °F 42% 30.23 in 10.0 mi North - - N/A   Overcast
6:14 PM 41.0 °F - 19.4 °F 42% 30.23 in 10.0 mi North - - N/A   Overcast
6:34 PM 37.4 °F 24.8 °F 19.4 °F 48% 30.23 in 10.0 mi SW 31.1 mph 42.6 mph N/A   Overcast
6:54 PM 37.4 °F 25.2 °F 19.4 °F 48% 30.23 in 10.0 mi SW 28.8 mph - N/A   Overcast
7:14 PM 37.4 °F - 19.4 °F 48% 30.24 in 10.0 mi North - - N/A   Overcast
7:34 PM 37.4 °F 27.5 °F 19.4 °F 48% 30.25 in 10.0 mi WSW 18.4 mph 31.1 mph N/A   Overcast
7:54 PM 35.6 °F 26.2 °F 19.4 °F 52% 30.25 in 10.0 mi SW 15.0 mph - N/A   Mostly Cloudy
8:14 PM 35.6 °F 25.9 °F 19.4 °F 52% 30.26 in 10.0 mi SW 16.1 mph - N/A   Scattered Clouds
8:34 PM 35.6 °F 25.2 °F 19.4 °F 52% 30.26 in 10.0 mi SW 18.4 mph - N/A   Clear
8:54 PM 35.6 °F 25.2 °F 17.6 °F 48% 30.26 in 10.0 mi WSW 18.4 mph - N/A   Mostly Cloudy
9:14 PM 35.6 °F 26.6 °F 17.6 °F 48% 30.26 in 10.0 mi SSW 13.8 mph - N/A   Overcast
9:34 PM 35.6 °F 24.8 °F 15.8 °F 44% 30.27 in 10.0 mi SW 19.6 mph - N/A   Mostly Cloudy
9:54 PM 35.6 °F 24.5 °F 17.6 °F 48% 30.27 in 10.0 mi SW 20.7 mph - N/A   Overcast
10:14 PM 35.6 °F 25.5 °F 17.6 °F 48% 30.27 in 10.0 mi SW 17.3 mph - N/A   Overcast
10:54 PM 33.8 °F 24.3 °F 17.6 °F 52% 30.28 in 10.0 mi SW 13.8 mph - N/A   Scattered Clouds
11:14 PM 33.8 °F 23.9 °F 17.6 °F 52% 30.28 in 10.0 mi SW 15.0 mph - N/A   Clear
11:54 PM 33.8 °F - 17.6 °F 52% 30.28 in 10.0 mi North - - N/A   Clear